Pampa, TX

6:51 PM CDT on September 26, 2016 (GMT -0500)
Perry Lefors

Weather History for KPPA - April, 2013

Change the Weather History Date:

Monday, April 15, 2013

  Actual Average Record
Temperature  
Mean Temperature 56 °F -  
Max Temperature 74 °F 71 °F 86 °F (1976)
Min Temperature 39 °F 40 °F 24 °F (2014)
Degree Days  
Heating Degree Days 8    
Growing Degree Days 6 (Base 50)    
Moisture  
Dew Point 28 °F    
Average Humidity 36    
Maximum Humidity 68    
Minimum Humidity 21    
Precipitation  
Precipitation 0.00 in - - ()
Sea Level Pressure  
Sea Level Pressure 29.74 in    
Wind  
Wind Speed 16 mph (East)    
Max Wind Speed 24 mph    
Max Gust Speed 32 mph    
Visibility 10 miles    
Events      
Averages and records for this station are not official NWS values.
T = Trace of Precipitation, MM = Missing Value Source: NWS Daily Summary

Daily Weather History Graph

Daily Weather History Graph

Search for Another Location

Airport or City:

Trip Planner

Search our weather history database for the weather conditions in past years. The results will help you decide how hot, cold, wet, or windy it might be!

Date:

Astronomy

Apr. 15, 2013 Rise Set
Actual Time 7:10 AM CDT 8:17 PM CDT
Civil Twilight 6:44 AM CDT 8:43 PM CDT
Nautical Twilight 6:13 AM CDT 9:15 PM CDT
Astronomical Twilight 5:41 AM CDT 9:47 PM CDT
Moon 10:44 AM CDT (4/15) 12:25 AM CDT (4/15)
Length of Visible Light 13h 59m
Length of Day
13h 06m
Waxing Crescent, 25% of the Moon is Illuminated
Apr 15
Waxing Crescent
Apr 18
First Quarter
Apr 25
Full
May 2
Last Quarter
May 9
New

Hourly Weather History & Observations

Time (CDT) Temp. Windchill Dew Point Humidity Pressure Visibility Wind Dir Wind Speed Gust Speed Precip Events Conditions
12:15 AM 52.2 °F - 21.6 °F 30% 29.69 in 10.0 mi ENE 23.0 mph 28.8 mph N/A   Clear
12:35 AM 51.3 °F - 20.3 °F 30% 29.70 in 10.0 mi ENE 24.2 mph 29.9 mph N/A   Clear
12:55 AM 50.9 °F - 18.3 °F 28% 29.70 in 10.0 mi ENE 24.2 mph 27.6 mph N/A   Clear
1:15 AM 50.0 °F - 17.6 °F 28% 29.71 in 10.0 mi ENE 21.9 mph - N/A   Clear
1:35 AM 49.1 °F - 17.1 °F 28% 29.71 in 10.0 mi ENE 16.1 mph 23.0 mph N/A   Clear
1:55 AM 48.4 °F - 17.1 °F 29% 29.72 in 10.0 mi ENE 18.4 mph 24.2 mph N/A   Clear
2:15 AM 47.5 °F - 17.1 °F 30% 29.72 in 10.0 mi ENE 16.1 mph 21.9 mph N/A   Clear
2:35 AM 47.3 °F - 17.1 °F 30% 29.72 in 10.0 mi ENE 17.3 mph 24.2 mph N/A   Clear
2:55 AM 46.8 °F - 17.4 °F 31% 29.72 in 10.0 mi ENE 17.3 mph - N/A   Clear
3:15 AM 46.4 °F 40.1 °F 17.6 °F 32% 29.71 in 10.0 mi ENE 15.0 mph - N/A   Clear
3:35 AM 45.5 °F 38.9 °F 18.3 °F 34% 29.72 in 10.0 mi ENE 15.0 mph - N/A   Clear
3:55 AM 44.6 °F 38.8 °F 18.5 °F 35% 29.73 in 10.0 mi ENE 11.5 mph - N/A   Clear
4:15 AM 43.9 °F 38.3 °F 19.0 °F 37% 29.73 in 10.0 mi ENE 10.4 mph - N/A   Clear
4:35 AM 43.2 °F 37.0 °F 19.8 °F 39% 29.74 in 10.0 mi ENE 11.5 mph - N/A   Clear
4:55 AM 43.2 °F 37.0 °F 19.9 °F 40% 29.73 in 10.0 mi ENE 11.5 mph - N/A   Clear
5:15 AM 42.6 °F 38.4 °F 20.1 °F 41% 29.74 in 10.0 mi ENE 6.9 mph - N/A   Clear
5:35 AM 41.2 °F 37.3 °F 20.3 °F 43% 29.74 in 10.0 mi ENE 5.8 mph - N/A   Clear
5:55 AM 43.0 °F 36.4 °F 19.9 °F 40% 29.73 in 10.0 mi ENE 12.7 mph - N/A   Clear
6:15 AM 42.4 °F 36.1 °F 19.8 °F 40% 29.74 in 10.0 mi ENE 11.5 mph - N/A   Clear
6:35 AM 42.4 °F 36.1 °F 19.8 °F 40% 29.74 in 10.0 mi ENE 11.5 mph - N/A   Clear
6:55 AM 41.2 °F 35.0 °F 20.5 °F 44% 29.75 in 10.0 mi ENE 10.4 mph - N/A   Clear
7:15 AM 39.7 °F 34.9 °F 21.6 °F 48% 29.78 in 10.0 mi NE 6.9 mph - N/A   Clear
7:35 AM 39.6 °F 34.7 °F 22.5 °F 50% 29.79 in 10.0 mi NNE 6.9 mph - N/A   Clear
7:55 AM 41.7 °F 35.6 °F 22.8 °F 47% 29.80 in 10.0 mi NNE 10.4 mph - N/A   Scattered Clouds
8:15 AM 43.3 °F 38.1 °F 23.5 °F 46% 29.81 in 10.0 mi NNE 9.2 mph - N/A   Mostly Cloudy
8:35 AM 45.3 °F 39.3 °F 23.4 °F 42% 29.80 in 10.0 mi NE 12.7 mph 16.1 mph N/A   Overcast
8:55 AM 46.4 °F 39.8 °F 22.8 °F 39% 29.80 in 10.0 mi NE 16.1 mph - N/A   Overcast
9:15 AM 47.3 °F - 21.9 °F 37% 29.80 in 10.0 mi ENE 18.4 mph 23.0 mph N/A   Overcast
9:35 AM 49.1 °F - 19.6 °F 31% 29.80 in 10.0 mi East 19.6 mph 31.1 mph N/A   Overcast
9:55 AM 50.7 °F - 19.4 °F 29% 29.80 in 10.0 mi East 18.4 mph - N/A   Overcast
10:15 AM 51.1 °F - 20.5 °F 30% 29.80 in 10.0 mi East 19.6 mph - N/A   Overcast
10:35 AM 51.6 °F - 22.1 °F 32% 29.81 in 10.0 mi East 16.1 mph - N/A   Overcast
10:55 AM 52.7 °F - 23.2 °F 32% 29.80 in 10.0 mi East 16.1 mph 25.3 mph N/A   Mostly Cloudy
11:15 AM 55.2 °F - 25.0 °F 31% 29.80 in 10.0 mi East 15.0 mph 25.3 mph N/A   Scattered Clouds
11:35 AM 56.1 °F - 25.5 °F 31% 29.80 in 10.0 mi East 20.7 mph 24.2 mph N/A   Clear
11:55 AM 57.9 °F - 26.6 °F 30% 29.80 in 10.0 mi East 15.0 mph 24.2 mph N/A   Clear
12:15 PM 58.6 °F - 27.9 °F 31% 29.79 in 10.0 mi East 15.0 mph 19.6 mph N/A   Clear
12:35 PM 59.9 °F - 28.6 °F 30% 29.79 in 10.0 mi East 12.7 mph 19.6 mph N/A   Clear
12:55 PM 61.3 °F - 30.4 °F 31% 29.79 in 10.0 mi ESE 10.4 mph - N/A   Clear
1:15 PM 62.6 °F - 31.5 °F 31% 29.78 in 10.0 mi SSE 11.5 mph - N/A   Clear
1:35 PM 63.1 °F - 31.8 °F 31% 29.78 in 10.0 mi SE 9.2 mph - N/A   Clear
1:55 PM 63.7 °F - 31.5 °F 30% 29.78 in 10.0 mi SSE 12.7 mph 18.4 mph N/A   Clear
2:15 PM 65.3 °F - 31.8 °F 29% 29.76 in 10.0 mi SSE 6.9 mph - N/A   Clear
2:35 PM 66.6 °F - 32.0 °F 28% 29.76 in 10.0 mi SSE 8.1 mph 18.4 mph N/A   Clear
2:55 PM 67.5 °F - 32.9 °F 28% 29.74 in 10.0 mi SSE 6.9 mph - N/A   Clear
3:15 PM 68.9 °F - 33.1 °F 27% 29.73 in 10.0 mi SE 9.2 mph 16.1 mph N/A   Clear
3:35 PM 70.9 °F - 32.5 °F 24% 29.73 in 10.0 mi South 10.4 mph 21.9 mph N/A   Clear
3:55 PM 70.9 °F - 33.3 °F 25% 29.73 in 10.0 mi South 11.5 mph 18.4 mph N/A   Clear
4:15 PM 72.5 °F - 33.8 °F 24% 29.72 in 10.0 mi SSE 9.2 mph 18.4 mph N/A   Clear
4:35 PM 73.4 °F - 33.3 °F 23% 29.72 in 10.0 mi South 13.8 mph - N/A   Clear
4:55 PM 73.9 °F - 32.2 °F 22% 29.71 in 10.0 mi SSW 11.5 mph 19.6 mph N/A   Clear
5:15 PM 74.1 °F - 32.7 °F 22% 29.70 in 10.0 mi SSE 15.0 mph - N/A   Clear
5:35 PM 74.3 °F - 32.2 °F 21% 29.70 in 10.0 mi South 13.8 mph 21.9 mph N/A   Clear
5:55 PM 74.3 °F - 32.7 °F 22% 29.69 in 10.0 mi South 13.8 mph 20.7 mph N/A   Clear
6:15 PM 73.9 °F - 32.7 °F 22% 29.69 in 10.0 mi SSE 13.8 mph 21.9 mph N/A   Clear
6:35 PM 73.8 °F - 32.9 °F 22% 29.69 in 10.0 mi SSE 12.7 mph - N/A   Clear
6:55 PM 73.6 °F - 31.1 °F 21% 29.69 in 10.0 mi SSE 15.0 mph - N/A   Clear
7:15 PM 72.7 °F - 31.6 °F 22% 29.69 in 10.0 mi SE 12.7 mph - N/A   Clear
7:35 PM 70.5 °F - 34.5 °F 27% 29.69 in 10.0 mi ESE 13.8 mph - N/A   Clear
7:55 PM 68.2 °F - 34.3 °F 29% 29.69 in 10.0 mi ESE 13.8 mph 20.7 mph N/A   Clear
8:15 PM 65.3 °F - 36.7 °F 35% 29.69 in 10.0 mi ESE 17.3 mph - N/A   Clear
8:35 PM 62.8 °F - 38.7 °F 41% 29.70 in 10.0 mi ESE 16.1 mph - N/A   Clear
8:55 PM 61.2 °F - 39.4 °F 45% 29.72 in 10.0 mi ESE 17.3 mph - N/A   Clear
9:15 PM 59.9 °F - 41.0 °F 50% 29.73 in 10.0 mi ESE 19.6 mph - N/A   Clear
9:35 PM 58.6 °F - 41.4 °F 53% 29.73 in 10.0 mi ESE 18.4 mph 21.9 mph N/A   Clear
9:55 PM 57.0 °F - 42.8 °F 59% 29.74 in 10.0 mi ESE 19.6 mph - N/A   Clear
10:15 PM 55.6 °F - 43.7 °F 64% 29.75 in 10.0 mi ESE 20.7 mph - N/A   Clear
10:35 PM 54.5 °F - 43.3 °F 66% 29.76 in 10.0 mi ESE 24.2 mph 28.8 mph N/A   Clear
10:55 PM 52.9 °F - 41.9 °F 66% 29.77 in 10.0 mi East 20.7 mph 32.2 mph N/A   Clear
11:15 PM 50.0 °F - 39.7 °F 68% 29.77 in 10.0 mi ESE 20.7 mph 28.8 mph N/A   Clear
11:35 PM 48.9 °F - 38.8 °F 68% 29.77 in 10.0 mi ESE 19.6 mph 25.3 mph N/A   Clear
11:55 PM 47.3 °F - 37.0 °F 68% 29.77 in 10.0 mi ESE 21.9 mph 28.8 mph N/A   Clear